AirNav   Everest Fuels
 
 490 users online  

1TE4 Zuehl Airport
Marion, Texas, USA

GOING TO MARION?


FAA INFORMATION EFFECTIVE 26 JANUARY 2023

Location

FAA Identifier: 1TE4
Lat/Long: 29-29-44.2750N 098-09-31.9650W
29-29.737917N 098-09.532750W
29.4956319,-98.1588792
(estimated)
Elevation: 592 ft. / 180 m (estimated)
Variation: 07E (1985)
From city: 4 miles S of MARION, TX
Time zone: UTC -6 (UTC -5 during Daylight Saving Time)
Zip code: 78124

Airport Operations

Airport use: Private use. Permission required prior to landing
Activation date: 06/1974
Control tower: no
ARTCC: HOUSTON CENTER
FSS: SAN ANGELO FLIGHT SERVICE STATION
Attendance: CONTINUOUS
Wind indicator: yes
Segmented circle: no

Airport Communications

WX ASOS at BAZ (14 nm NE): 119.325 (830-629-7979)
WX ASOS at SAT (16 nm W): PHONE 210-805-5583
WX ASOS at SSF (19 nm SW): PHONE 210-927-9391

Nearby radio navigation aids

VOR radial/distance  VOR name  Freq  Var
RNDr097/6.7RANDOLPH VORTAC112.3005E
SATr111/18.1SAN ANTONIO VORTAC116.8008E
SSFr037/(20.6)STINSON VOR108.4009E

Airport Services

Fuel available: 100
Airframe service: NONE
Powerplant service: NONE

Runway Information

Runway 17/35

Dimensions: 2963 x 200 ft. / 903 x 61 m
Surface: turf, in fair condition
RUNWAY 17  RUNWAY 35
Latitude: 29-29.982167N29-29.493667N
Longitude: 098-09.544333W098-09.521167W
Elevation: 592.0 ft.588.0 ft.
Traffic pattern: leftright
Runway end identifier lights: yesyes
Obstructions: trees, 800 ft. from runway, 14:1 slope to cleartrees, 800 ft. from runway, 14:1 slope to clear

Airport Ownership and Management from official FAA records

Ownership: Privately-owned
Owner: ZUEHL ARPT FLYING COMM OWNRS ASSN
P.O. BOX 618
MARION, TX 78124
Phone 210-602-7745
Manager: JAMES M. 'MATT' HUMES
12165 JOLLY ROAD
ADKINS, TX 78101
Phone 210-602-7745
PRESIDENT, ZAFCOA FLCNFXR@SBCGLOBAL.NET

Airport Operational Statistics

Aircraft based on the field: 105
Single engine airplanes: 100
Helicopters: 1
Ultralights: 4
    
Aircraft operations: avg 86/week
89% local general aviation
11% transient general aviation

Additional Remarks

ACFT WINGSPAN LTD TO 60 FT.
ARPT LCTD IN CLOSE PROXIMITY TO RANDOLPH AFB.
FOR CD CTC SAN ANTONIO APCH AT 210-805-5516.
OWNER REQUESTS ARPT BE CHARTED.

Instrument Procedures

There are no published instrument procedures at 1TE4.

Some nearby airports with instrument procedures:

KRND - Randolph Air Force Base (7 nm W)
KBAZ - New Braunfels National Airport (14 nm NE)
KSAT - San Antonio International Airport (16 nm W)
KSSF - Stinson Municipal Airport (19 nm SW)
KSKF - Kelly Field Airport (23 nm W)
 
Loc | Ops | Rwys | IFR | FBO | Links
Com | Nav | Svcs | Stats | Notes
Area around 1TE4 (Zuehl Airport)
 
Road maps at: MapQuest Bing Google
 
Aerial photo
WARNING: Photo may not be current or correct
Aerial photo of 1TE4 (Zuehl Airport)
Photo by “Krusty”
Photo taken 22-Jan-2011
looking north.

Do you have a better or more recent aerial photo of Zuehl Airport that you would like to share? If so, please send us your photo.

 
Sectional chart

 
Airport distance calculator
Flying to Zuehl Airport? Find the distance to fly.

From to 1TE4

Sunrise and sunset
Times for 03-Feb-2023
 Local
(UTC-6)
 Zulu
(UTC)
Morning civil twilight06:5712:57
Sunrise07:2213:22
Sunset18:1100:11
Evening civil twilight18:3600:36

Current date and time
Zulu (UTC)  03-Feb-2023 08:35:54
Local (UTC-6)  03-Feb-2023 02:35:54
 
METAR
KRND 
6nm W 
030755Z AUTO 01003KT 10SM CLR 02/02 A3043 RMK AO2 SLP310 T00230020
KSEQ 
14nm E 
030755Z AUTO 34005KT 9SM FEW021 02/01 A3045 RMK AO2 SLP316 T00200008 $
KBAZ 
14nm NE 
030751Z AUTO 00000KT 10SM CLR 03/01 A3045 RMK AO2 SLP314 T00330006
KSAT 
16nm W 
030751Z 33003KT 10SM FEW023 03/01 A3046 RMK AO2 SLP308 T00330006
KSSF 
19nm SW 
030753Z AUTO 03003KT 9SM CLR 03/02 A3044 RMK AO2 SLP315 T00330022 $
TAF
KRND 
6nm W 
022045Z 0220/0323 34010KT 9999 SCT013 BKN023 QNH3020INS BECMG 0300/0301 34007KT 9999 BKN030 QNH3020INS BECMG 0306/0307 34006KT 9999 SCT030 SCT060 QNH3032INS BECMG 0317/0318 02010KT 9999 SKC QNH3040INS TX09/0221Z TN01/0311Z LAST NO AMDS AFT 0301 NEXT 0311
KSAT 
16nm W 
030528Z 0306/0412 34009KT P6SM SCT018 FM030700 34008KT P6SM SKC FM031500 02011KT P6SM SKC FM040000 05004KT P6SM SKC
KSSF 
19nm SW 
030528Z 0306/0406 36007KT P6SM SKC FM031500 02010KT P6SM SKC FM040000 05003KT P6SM SKC
NOTAMs
Click for the latest NOTAMs
NOTAMs are issued by the DoD/FAA and will open in a separate window not controlled by AirNav.

 

 
 

Would you like to see your business listed on this page?

 If your business provides an interesting product or service to pilots, flight crews, aircraft, or users of the Zuehl Airport, you should consider listing it here.  To start the listing process, click on the button below
 
Add a business
 

Other Pages about Zuehl Airport

www.zuehlfield.com
 
Update a link
 
Copyright © AirNav, LLC. All rights reserved. Privacy Policy  Contact